Printer-friendly version

IAU Minor Planet Center

Minor Planet Center

MPEC 2005-Q37 : COMET C/2005 N1 (JUELS-HOLVORCEM)

The following Minor Planet Electronic Circular may be linked-to from your own Web pages, but must not otherwise be redistributed electronically.


Read MPEC 2005-Q36 Read MPEC 2005-Q38


M.P.E.C. 2005-Q37                                Issued 2005 Aug. 29, 00:15 UT

     The Minor Planet Electronic Circulars contain information on unusual
         minor planets and routine data on comets.  They are published
   on behalf of Commission 20 of the International Astronomical Union by the
          Minor Planet Center, Smithsonian Astrophysical Observatory,
                          Cambridge, MA 02138, U.S.A.

                  Supported in part by the Brinson Foundation
             Prepared using the Tamkin Foundation Computer Network

                              MPC@CFA.HARVARD.EDU
          URL http://cfa-www.harvard.edu/iau/mpc.html  ISSN 1523-6714

                       COMET C/2005 N1 (JUELS-HOLVORCEM)

Observations:
    CK05N010  C2005 08 18.04980 08 20 13.21 +51 39 13.1          14.1 N EQ037A32
    CK05N010  C2005 08 18.05205 08 20 14.19 +51 39 11.4          14.2 N EQ037A32
    CK05N010  C2005 08 18.05428 08 20 15.24 +51 39 09.1          14.2 N EQ037A32
    CK05N010  C2005 08 18.05653 08 20 16.25 +51 39 07.1          14.2 N EQ037A32
    CK05N010  C2005 08 25.11673 09 10 05.07 +49 17 04.5          13.5 N EQ037213
    CK05N010  C2005 08 25.11727 09 10 05.29 +49 17 03.9          13.5 N EQ037213
    CK05N010  C2005 08 25.11916 09 10 06.02 +49 17 01.6          13.5 N EQ037213

Observer details:
213 Observatorio Montcabre.  Observer R. Naves.  Measurer M. Campas.  0.30-m
    f/10 Schmidt-Cassegrain + CCD.
A32 Panker.  Observer H. Denzau.  0.36-m f/5.5 Schmidt-Cassegrain + CCD.

Orbital elements:
    C/2005 N1 (Juels-Holvorcem)
T 2005 Aug. 22.0219 TT                                  MPC
q   1.125725             (2000.0)            P               Q
                   Peri.   80.0264      +0.1379170      -0.9894588
                   Node     3.2495      +0.2693664      -0.0054354
e   1.0            Incl.   51.1772      +0.9531110      +0.1447128
From 84 observations 2005 July 3-Aug. 25.

Brian G. Marsden             (C) Copyright 2005 MPC           M.P.E.C. 2005-Q37

Read MPEC 2005-Q36 Read MPEC 2005-Q38


Our Web policy. Index to the CBAT/MPC/ICQ pages.


Valid HTML 4.01!